Weather Roundup
Issued by NWS Chicago, IL

Home | Current Version | Previous Version | Graphics & Text | Print | Product List | Glossary On
Versions: 1 2 3 4 5 6 7 8 9 10 11 12 13 14 15 16 17 18 19 20 21 22 23 24 25 26 27 28 29 30 31 32 33 34 35 36 37 38 39 40 41 42 43 44 45 46 47 48 49 50
000
NZUS59 KLOT 030308
HRRLOT

CHICAGO AREA WEATHER ROUNDUP
NATIONAL WEATHER SERVICE CHICAGO/ROMEOVILLE IL
1000 PM CDT MON MAY 02 2016

NOTE: "FAIR" INDICATES FEW OR NO CLOUDS BELOW 12,000 FEET WITH NO
SIGNIFICANT WEATHER AND/OR OBSTRUCTIONS TO VISIBILITY.

* THESE STATIONS ARE NOT UNDER NWS QUALITY CONTROL. THEY ALSO MAY NOT
  REPORT WEATHER SUCH AS PRECIPITATION OR FOG.

ILZ005-006-012>014-019>023-030400-
NORTHEAST ILLINOIS

CITY           SKY/WX    TMP DP  RH WIND       PRES   REMARKS
OHARE          PTCLDY    48  34  58 NE5       30.02R
MIDWAY         PTCLDY    50  33  52 NE7       30.02S
AURORA         CLEAR     45  36  70 E3        30.03R
LANSING*       CLOUDY    47  35  62 NE3       30.02S
JOLIET*        CLEAR     46  39  77 CALM      30.02S
WAUKEGAN       CLEAR     43  35  73 CALM      30.01F
DUPAGE AIRPORT CLEAR     46  33  60 CALM      30.01S
WHEELING       CLEAR     45  36  70 CALM      30.03S
KANKAKEE*      CLOUDY    49  38  67 CALM      30.02S
MORRIS*        PTCLDY    48  40  73 CALM      30.02R
LEWIS AIRPORT* CLEAR     49  35  59 NE3       30.02S
$$

WIZ051-052-058>065-066-070>072-030400-
SOUTHEAST WISCONSIN

CITY           SKY/WX    TMP DP  RH WIND       PRES   REMARKS
MILWAUKEE      CLEAR     45  33  63 CALM      30.02F
KENOSHA*       CLEAR     40  35  83 CALM      30.02F
RACINE*        CLEAR     42  34  73 W3        30.03F
BURLINGTON     CLEAR     41  34  75 CALM      30.02F
WAUKESHA       CLEAR     43  32  65 CALM      30.03S
WEST BEND      CLEAR     45  32  61 CALM      30.02S
$$

INZ001>003-010>013-019-020-030400-
NORTHWEST INDIANA

CITY           SKY/WX    TMP DP  RH WIND       PRES   REMARKS
GARY*          MOCLDY    46  45  93 N5        30.03S
MICHIGAN CITY* NOT AVBL
RENSSELAER*    NOT AVBL
VALPARAISO     CLOUDY    48  39  71 N3        30.01S
$$

LMZ740>746-030400-
SOUTHERN LAKE MICHIGAN

STATION/POSITION TIME  SKY/WX   TEMP WIND        PRES    VSBY
                                AIR  DIR/SP/G
                 (UTC)          (F)  (DEG/KT/KT) (MB)    (MI)
HARRISON CRIB    0200            46  350/  6/  7   N/A
BURNHAM HARBOR   0300            47  360/  6/  8   N/A
CALUMET HARBOR   0200            46              1016.1F
BURNS HARBOR     0200            47   40/  4/  6 1016.9S
MICHIGAN CITY    0200            46  360/  4/  5   N/A
$$

ABBREVIATIONS USED IN REMARKS
   TC - TEMPERATURE IN CELSIUS
  WCI - WIND CHILL INDEX
   HX - HEAT INDEX
  VSB - VISIBILITY
$$



USA.gov is the U.S. government's official web portal to all federal, state and local government web resources and services.